STARLINK-37035, 68180

Orbit data source: Space-Track

STARLINK-37035, 68180 is a payload satellite owned by SpaceX/Seattle (US) in LEO that was launched on Sat, 14 Mar 2026 UTC via an FALCON 9 launch vehicle from the Air Force Eastern Test Range (AFETR). Payload-class satellites include a variety of spacecraft equipped with specific instruments for various scientific and technological missions. These include communications satellites like Starlink; space stations such as the ISS; scientific satellites like the Hubble; Earth observation satellites from companies like Planet Labs, Umbra, and HawkEye 360; GPS; miniature CubeSats for education and research; and military/defense satellites.

Loading next visibility...
Identifier
68180, 2026-050P
Orbit
LEO
Country
Flag of USUS
Related business
Manufacturer
SpaceX/Seattle
Mission
Operational spacecraft
Bus & Motor
STARLINK V2MO, Unknown motor
Mass
575 kg wet, ~530 kg dry
Launch date (UTC)
2026-03-14 (3 months ago)
Launch vehicle
FALCON 9
Launch site
Air Force Eastern Test Range (AFETR)
Object type
Payload
Rocket body
Debris
Shape & HBR
Unknown shape, 17.7 m
Radar Cross Section
Large (>1 m²)

Expand to show TLE details & history
Last TLE update: 12 hours ago

TLE from 12 hours ago
0 STARLINK-37035
1 68180U 26050P   26171.36498376  .00027645  00000-0  82587-3 0  9996
2 68180  53.1587 148.3878 0001185  69.4180 290.6950 15.34417279 16423
Epoch: 2026-06-20T08:45Z
TLE epoch observation values (Epoch: 2026-06-20T08:45:34.596Z)
Latitude
-0.00001°
Longitude
108.41299°
Altitude
463.267 km
Speed
7.636 km/s
True Right ascension
09h 53m 33s
True Declination
0° 00' 00"
Sunlit
Object was in daylight at epoch
Visualization orbit readout
Latitude
Unknown
Longitude
Unknown
Altitude
Unknown
Speed
Unknown
Apparent Right ascension
Unknown
Apparent Declination
Unknown
Sunlit
N/A
Visualization observer readout
Local Sidereal Time
07:22:44
Azimuth
Unknown
Elevation
Unknown
Doppler factor
Unknown
Orbital elements
Apogee altitude
463.72 km
Perigee altitude
462.098 km
Semi-major axis
6,841.046 km
Eccentricity
0.00012
Inclination
53.1587°
RAAN
148.3878°
Arg. of periapsis
69.418°
True anomaly
290.6823°
Mean anomaly
290.695°
Eccentric anomaly
290.68865°
Mean motion
3.83583 °/min
Orbital period
93.85 mins
BSTAR
0.00082587
Loading maneuver chart data...
Computing Atmospheric mass density...
Loading historical data...
Loading historical data...
Loading historical data...
Loading historical data...
Loading historical data...
Loading historical data...
Loading historical data...

Documentation

Showing up to 5 results
|